{"data":{"norad_id":65648,"intl_designator":"2025-210AC","name":"STARLINK-34868","alt_names":[],"object_type":"PAYLOAD","status":"ACTIVE","operator":null,"country":"US","launch_date":"2025-09-18","launch_site_code":"AFETR","launch_vehicle":null,"mission":null,"orbit_class":"UNKNOWN","rcs_meters":null,"size_class":null,"mass_kg":null,"dimensions":null,"purposes":["comms"],"wikipedia_slug":null,"has_3d_model":false,"image_url":null,"decayed_at":null,"tle_current":{"epoch":"2026-09-20T22:09:12.758112Z","epoch_age_seconds":72256,"freshness":"FRESH","line1":"1 65648U 25210AC  26263.92306433  .00021558  00000+0  64712-3 0  9991","line2":"2 65648  53.1622 115.8732 0001158 125.5582 234.5529 15.34410490 57687","mean_motion":15.3441049,"eccentricity":0.0001158,"inclination_deg":53.1622,"raan_deg":115.8732,"arg_perigee_deg":125.5582,"mean_anomaly_deg":234.5529,"bstar":0.00064712,"rev_number":5768,"period_min":93.847116490972,"perigee_km":461.8798962047,"apogee_km":463.46422758343,"semimajor_km":6840.8090618941,"source":"CELESTRAK","updated_at":"2026-09-21T09:00:35.678303Z"}}}